Temp
22 22 21 21 21 21 21 21 21 22 22 21 21 20 20 20 19 19 18 18 18 18 18 18 18 17 17 16 16 17 16 16 16 16 16 16 16 16 16 16 16 15 15
22 22 22 22 21 21 21 21 21 21 21 21 20 20 20 20 19 19 19 18 18 18 18 18 17 17 17 17 17 17 16 16 16 16 16 16 16 16 16 16 16 15 15
22 22 21 21 21 21 21 21 21 21 21 21 20 20 20 19 19 19 18 18 18 17 17 17 17 17 17 17 17 16 16 16 16 16 16 16 16 16 15 15 15 15 15
22 22 21 21 21 21 20 20 20 21 21 20 20 20 19 19 19 19 18 18 17 17 17 17 16 16 16 17 17 17 16 16 16 15 15 15 16 15 16 15 15 15 15
21 21 21 21 21 21 20 20 20 20 20 20 20 19 19 19 19 19 18 18 18 17 17 17 16 16 16 16 16 16 16 16 16 15 15 15 15 15 15 15 15 15 15
21 21 20 20 20 20 20 20 20 20 20 20 19 19 19 19 19 18 18 18 18 18 17 17 17 16 16 16 16 15 15 16 15 15 15 15 15 15 15 15 15 15 15
21 20 20 19 19 19 19 20 20 20 20 20 19 19 19 18 18 18 18 18 18 18 17 17 17 16 16 16 16 15 15 15 15 16 15 15 15 15 15 15 15 15 15
21 21 20 19 19 19 18 19 20 20 20 19 19 19 19 18 18 18 18 18 18 18 17 17 17 16 16 16 16 16 15 15 15 15 15 15 15 15 15 15 14 14 14
21 20 20 20 19 18 18 18 19 20 20 19 19 19 18 18 18 18 18 18 17 17 17 17 17 16 16 16 16 16 16 15 15 15 14 14 14 15 15 15 15 14 14
20 20 20 19 18 17 17 18 18 19 19 19 19 19 18 18 18 17 17 17 17 17 17 17 17 16 16 16 16 16 16 16 16 15 14 15 14 14 14 15 15 15 14
20 20 19 18 18 17 17 17 17 18 18 18 18 18 18 18 18 17 17 17 17 17 17 17 17 16 16 16 17 17 16 15 16 16 15 15 14 14 14 14 14 14 14
19 19 17 17 16 16 16 16 16 16 17 17 18 18 17 17 17 17 16 16 16 16 17 17 16 16 16 16 16 16 17 16 15 16 16 15 15 15 14 14 14 14 14
19 18 17 16 16 16 16 15 15 15 16 16 17 17 16 16 16 16 16 16 16 16 16 16 16 15 16 16 16 16 17 16 16 16 16 15 15 15 14 14 14 14 14
18 18 16 16 16 16 15 14 15 15 14 15 16 16 16 16 16 16 16 16 15 15 16 16 16 16 15 15 16 16 16 16 16 16 15 15 15 15 14 14 14 14 14
17 16 15 15 16 16 15 14 15 15 15 15 14 15 15 16 16 16 16 16 16 15 15 16 16 16 16 15 15 16 16 16 16 15 15 15 15 14 14 14 14 14 13
14 15 15 15 15 15 15 15 14 14 15 15 14 14 14 14 14 15 16 16 16 16 15 15 15 16 16 16 15 15 16 15 16 15 15 15 15 15 14 14 14 14 13
12 12 13 13 14 14 14 14 14 14 14 14 14 14 14 14 14 13 14 15 15 15 15 15 15 15 15 15 15 15 15 15 15 15 15 15 15 15 14 14 14 14 14
10 11 11 11 12 13 14 14 14 14 14 14 14 14 14 15 13 13 14 13 14 14 14 15 15 14 14 15 15 15 15 15 15 15 14 15 14 15 15 14 14 14 14
9 9 10 11 11 12 13 14 14 14 14 14 15 15 15 14 14 13 12 14 13 13 13 14 14 15 14 14 14 14 15 15 15 14 14 14 15 14 14 15 15 14 14
8 9 9 10 11 11 12 13 13 14 14 14 15 15 15 15 14 14 13 12 13 12 13 13 14 14 15 15 14 14 14 14 14 14 14 14 14 14 14 14 14 15 14
8 9 9 9 10 11 12 13 14 14 15 15 15 15 14 14 13 13 13 13 11 11 12 12 13 13 14 14 15 14 14 14 14 14 14 14 13 14 14 14 14 14 14
7 7 8 8 9 9 9 9 10 11 13 13 14 14 13 12 12 12 11 11 11 13 12 11 12 13 13 14 14 14 13 13 13 14 14 13 14 13 13 14 13 13 13
5 5 6 6 7 8 8 8 8 8 9 10 11 11 11 10 10 11 11 11 11 12 11 11 11 13 13 13 14 15 13 13 13 14 13 13 13 13 13 13 13 13 13
1 1 2 3 4 5 5 5 5 5 7 6 7 8 9 8 9 9 10 10 10 11 12 10 11 10 12 12 13 13 14 16 14 14 14 14 13 14 14 13 13 13 14
-0 0 0 0 -0 -0 0 1 1 1 2 3 3 4 6 5 6 7 8 9 10 10 11 11 10 12 12 11 12 12 14 15 14 13 13 15 15 14 14 14 14 14 14
-2 -2 -3 -2 -1 -1 -1 -0 -0 -1 -2 -0 0 1 3 3 4 5 6 7 8 9 10 11 10 10 11 11 12 12 13 14 13 13 13 13 14 15 14 14 14 14 14
Height
1496 1496 1497 1499 1501 1503 1502 1503 1503 1504 1505 1507 1508 1510 1511 1513 1515 1517 1518 1519 1520 1520 1521 1521 1522 1523 1524 1525 1525 1525 1526 1526 1526 1526 1526 1527 1530 1530 1532 1533 1534 1534 1534
1498 1499 1499 1500 1501 1502 1503 1503 1503 1504 1505 1506 1507 1509 1511 1513 1514 1516 1518 1519 1519 1520 1521 1521 1522 1523 1524 1524 1525 1525 1525 1525 1527 1527 1527 1528 1530 1532 1533 1534 1536 1536 1537
1498 1498 1500 1501 1502 1502 1503 1504 1504 1504 1505 1506 1508 1509 1510 1511 1512 1514 1516 1517 1518 1519 1521 1521 1522 1522 1523 1523 1524 1525 1525 1526 1526 1527 1528 1529 1531 1532 1535 1535 1536 1539 1538
1496 1497 1498 1500 1502 1504 1505 1504 1505 1505 1505 1506 1507 1507 1509 1511 1512 1513 1514 1516 1517 1518 1520 1521 1521 1522 1522 1523 1524 1524 1525 1526 1527 1528 1529 1531 1531 1532 1533 1537 1537 1539 1539
1496 1495 1497 1498 1499 1501 1503 1505 1506 1506 1505 1505 1507 1507 1508 1510 1511 1512 1514 1515 1517 1518 1519 1520 1521 1522 1523 1524 1525 1524 1525 1526 1527 1528 1529 1531 1532 1534 1534 1535 1537 1540 1540
1496 1496 1497 1498 1499 1499 1501 1503 1504 1506 1506 1506 1506 1507 1509 1510 1511 1513 1514 1515 1516 1518 1519 1519 1520 1522 1523 1524 1525 1525 1526 1526 1527 1528 1530 1530 1532 1533 1534 1535 1537 1539 1541
1495 1495 1497 1497 1498 1498 1498 1499 1502 1504 1505 1506 1506 1507 1508 1510 1511 1512 1513 1514 1515 1516 1517 1518 1519 1520 1522 1524 1525 1525 1526 1526 1528 1529 1529 1530 1531 1533 1534 1535 1537 1539 1540
1495 1496 1496 1496 1496 1497 1497 1498 1499 1501 1503 1505 1506 1507 1509 1509 1511 1513 1513 1514 1514 1515 1516 1516 1517 1518 1520 1521 1523 1524 1525 1526 1528 1529 1529 1531 1531 1531 1533 1535 1538 1539 1540
1497 1496 1497 1497 1497 1497 1498 1499 1500 1500 1501 1502 1504 1505 1507 1510 1510 1511 1513 1514 1514 1514 1515 1515 1516 1517 1518 1520 1521 1522 1523 1525 1527 1529 1530 1530 1531 1531 1532 1533 1535 1538 1541
1498 1498 1496 1497 1497 1498 1499 1500 1500 1500 1501 1501 1502 1503 1505 1507 1509 1511 1512 1513 1514 1514 1514 1515 1516 1516 1517 1518 1519 1520 1521 1523 1524 1526 1529 1530 1530 1531 1532 1533 1534 1535 1538
1498 1498 1498 1498 1498 1498 1498 1499 1499 1499 1500 1500 1501 1502 1503 1504 1506 1509 1510 1512 1513 1515 1514 1515 1515 1515 1516 1517 1518 1518 1519 1520 1522 1523 1525 1527 1529 1530 1531 1532 1533 1535 1537
1496 1496 1499 1500 1499 1498 1497 1497 1497 1497 1498 1499 1500 1501 1501 1502 1504 1507 1509 1511 1512 1513 1514 1514 1514 1514 1514 1515 1517 1517 1517 1518 1520 1521 1523 1526 1527 1529 1530 1531 1533 1534 1535
1496 1496 1495 1496 1496 1495 1494 1494 1494 1494 1496 1498 1498 1498 1499 1501 1502 1505 1507 1508 1509 1510 1511 1512 1513 1513 1513 1513 1514 1516 1516 1516 1518 1520 1521 1523 1525 1527 1528 1529 1531 1532 1533
1495 1494 1495 1495 1494 1494 1494 1492 1492 1490 1491 1494 1496 1496 1496 1498 1500 1501 1504 1506 1506 1507 1507 1508 1509 1510 1513 1513 1514 1514 1515 1515 1516 1518 1519 1520 1523 1525 1527 1527 1529 1531 1532
1495 1494 1494 1494 1493 1492 1491 1491 1490 1489 1489 1489 1491 1491 1492 1494 1494 1497 1499 1501 1503 1504 1505 1505 1507 1508 1509 1511 1511 1512 1512 1512 1514 1516 1516 1517 1519 1523 1525 1524 1527 1529 1531
1493 1493 1493 1492 1491 1490 1490 1490 1489 1488 1488 1488 1488 1486 1487 1489 1490 1493 1495 1496 1497 1499 1501 1503 1503 1505 1505 1507 1509 1510 1512 1511 1511 1513 1514 1514 1516 1518 1521 1523 1524 1526 1528
1493 1491 1491 1489 1489 1488 1488 1487 1486 1486 1485 1484 1484 1483 1481 1482 1483 1486 1488 1488 1492 1495 1498 1499 1500 1501 1501 1501 1503 1505 1508 1509 1508 1510 1512 1513 1514 1514 1516 1518 1521 1522 1525
1491 1489 1488 1487 1486 1485 1483 1483 1483 1482 1481 1481 1480 1480 1480 1480 1478 1478 1479 1480 1484 1488 1493 1495 1495 1497 1496 1496 1497 1498 1502 1504 1505 1507 1509 1509 1512 1512 1511 1514 1516 1518 1520
1490 1488 1486 1483 1482 1481 1480 1478 1477 1477 1477 1476 1476 1475 1475 1475 1474 1473 1465 1463 1462 1479 1484 1487 1489 1490 1490 1490 1491 1494 1496 1498 1500 1503 1504 1505 1506 1510 1509 1509 1510 1512 1516
1490 1487 1483 1481 1477 1475 1474 1474 1472 1470 1470 1470 1470 1469 1468 1468 1466 1464 1461 1459 1461 1475 1471 1480 1481 1484 1484 1484 1487 1490 1491 1493 1495 1496 1499 1502 1501 1504 1507 1507 1507 1506 1508
1487 1485 1482 1478 1474 1470 1466 1464 1465 1463 1460 1460 1460 1460 1460 1460 1459 1457 1457 1458 1464 1466 1470 1455 1474 1472 1477 1480 1481 1484 1485 1487 1490 1492 1493 1496 1497 1498 1503 1505 1506 1504 1504
1486 1483 1479 1474 1470 1466 1462 1459 1457 1455 1454 1452 1450 1450 1451 1452 1450 1450 1451 1451 1455 1454 1452 1459 1462 1463 1466 1471 1476 1475 1477 1480 1482 1484 1487 1490 1491 1494 1495 1498 1499 1501 1501
1482 1478 1474 1469 1465 1461 1457 1453 1450 1448 1444 1443 1442 1438 1440 1441 1442 1439 1441 1444 1445 1445 1443 1442 1452 1459 1457 1463 1466 1469 1469 1468 1473 1477 1479 1483 1483 1485 1488 1491 1493 1494 1496
1478 1474 1469 1465 1461 1457 1453 1449 1444 1439 1434 1431 1429 1429 1425 1428 1429 1430 1428 1433 1435 1437 1439 1438 1443 1452 1451 1452 1457 1459 1461 1461 1466 1471 1473 1475 1476 1476 1477 1481 1485 1488 1488
1476 1470 1465 1460 1456 1450 1445 1442 1437 1430 1426 1421 1419 1417 1416 1415 1416 1418 1419 1420 1423 1427 1430 1434 1434 1442 1441 1444 1449 1452 1455 1456 1460 1466 1467 1465 1468 1468 1469 1469 1473 1478 1481
1472 1466 1461 1456 1452 1447 1442 1438 1432 1426 1420 1414 1410 1408 1408 1404 1404 1405 1407 1409 1412 1415 1420 1424 1426 1431 1438 1435 1437 1443 1446 1449 1449 1457 1459 1457 1462 1461 1462 1462 1464 1468 1472
Wind_Speed
5 16 18 16 14 14 15 15 13 12 12 12 11 9 7 7 8 8 8 8 9 10 10 11 11 10 7 5 4 3 3 3 5 8 11 12 12 12 12 13 15 16 16
1 9 14 14 14 14 14 14 14 13 12 13 13 11 9 8 7 8 9 9 10 10 10 11 11 9 7 4 4 5 4 5 6 9 11 12 11 11 12 13 14 14 14
2 6 11 13 13 14 14 13 14 14 13 13 13 12 11 10 9 8 8 9 10 11 11 11 10 9 7 7 7 6 6 6 8 10 10 11 12 11 11 12 12 12 15
6 3 7 11 13 13 12 13 13 13 14 14 15 14 12 10 9 9 9 9 11 11 11 11 10 9 8 9 9 8 8 9 9 9 9 9 11 10 11 9 11 13 14
3 5 5 6 11 13 13 13 13 14 15 15 15 15 14 12 11 11 11 10 10 11 11 11 11 9 9 10 10 9 11 12 13 12 10 9 10 9 10 12 13 12 14
2 4 4 4 4 11 15 15 14 14 15 16 16 16 16 14 13 13 12 12 11 11 11 11 11 10 11 12 9 11 12 13 14 11 10 11 9 9 11 13 13 13 13
4 4 1 4 7 10 17 17 16 15 16 17 17 17 18 16 15 15 14 13 13 12 12 11 12 13 14 13 12 13 13 13 13 12 11 8 8 10 10 12 13 14 14
7 5 2 4 6 8 15 18 18 17 17 17 18 18 18 18 16 15 15 15 14 14 13 13 14 14 14 14 14 15 15 12 11 12 10 8 8 11 11 13 14 14 14
5 8 8 6 8 5 11 15 16 18 19 19 19 19 20 19 18 17 17 16 16 15 15 15 15 16 16 15 15 16 16 15 11 14 12 10 10 12 12 15 15 15 15
9 7 5 5 6 6 8 13 17 18 19 20 21 21 21 21 20 19 19 18 17 17 16 16 17 17 17 17 17 17 17 16 14 13 12 8 11 12 14 16 16 17 16
7 7 7 5 4 6 8 10 16 20 20 21 22 22 22 24 24 22 22 20 19 18 17 18 18 18 18 18 18 19 19 18 17 13 13 9 12 12 15 16 16 17 17
4 0 4 6 6 7 10 11 12 20 22 22 23 24 24 25 25 25 23 22 22 21 20 19 19 19 20 20 19 20 20 21 20 16 16 12 11 11 15 16 17 18 17
3 3 5 4 6 8 9 11 9 12 21 23 24 24 26 26 26 26 26 25 26 24 24 23 23 23 22 22 21 21 21 22 22 19 16 16 12 12 13 15 18 18 18
5 2 5 7 8 10 12 12 14 13 16 22 24 25 26 27 28 29 29 29 30 29 28 27 26 25 24 23 22 22 23 23 23 21 18 16 14 14 14 15 17 19 19
3 3 4 6 10 11 11 13 16 16 19 20 23 24 26 28 30 31 32 33 33 33 32 31 29 28 27 25 24 24 25 25 24 25 20 18 17 16 15 15 16 19 20
6 3 4 7 9 11 12 13 14 16 18 24 24 22 23 27 30 31 34 35 36 37 36 34 32 31 29 27 26 25 26 27 27 28 25 21 20 18 16 16 17 19 22
3 2 4 7 9 10 12 13 15 16 16 18 24 31 26 25 26 31 34 36 37 38 38 37 35 34 32 30 30 28 28 30 30 29 29 24 22 20 18 16 16 19 22
5 7 8 9 10 13 15 16 17 18 19 20 20 21 25 33 35 27 38 39 35 34 41 40 38 38 36 35 33 32 31 30 31 30 31 28 25 24 22 19 16 18 22
12 14 16 16 15 15 16 20 19 19 20 23 25 25 26 27 29 36 33 38 35 31 41 42 41 40 38 38 36 34 34 36 35 31 33 32 30 28 26 24 21 19 22
16 18 19 21 23 22 21 21 24 26 25 25 27 29 30 30 32 31 31 29 51 67 35 42 44 43 41 36 35 35 34 35 36 36 35 33 32 31 29 27 25 24 23
21 22 23 24 25 26 29 29 28 29 34 34 36 36 33 33 33 34 29 26 36 51 55 31 43 43 42 39 33 34 35 34 38 36 37 36 35 34 33 31 30 29 27
23 24 25 27 27 28 30 30 32 35 35 38 41 42 39 35 35 35 30 29 28 36 57 58 41 38 38 42 40 35 24 32 38 41 40 38 38 36 36 35 34 35 32
27 27 28 29 30 31 32 35 34 35 40 38 39 45 42 37 33 37 35 33 27 30 35 55 50 45 39 42 40 31 14 15 29 40 46 43 43 41 40 39 37 36 35
31 31 31 30 28 29 29 31 35 37 40 42 40 39 45 39 36 34 38 33 33 30 31 40 66 60 44 41 38 37 41 30 14 19 34 48 48 46 45 43 42 39 36
29 30 32 32 32 32 31 31 34 38 37 39 40 39 40 41 38 35 34 35 34 34 30 24 49 73 51 56 57 42 43 42 45 39 25 30 49 53 50 47 44 43 41
31 33 33 32 32 31 31 30 31 33 35 36 37 37 34 36 36 34 32 33 33 35 33 31 24 50 59 51 54 47 42 39 43 44 43 32 35 45 56 51 48 47 44
Wind_Direction
111 174 176 178 180 180 171 168 169 173 175 173 166 161 149 117 131 136 149 150 151 154 160 164 164 160 158 143 134 128 112 93 116 121 127 128 135 134 136 135 134 130 125
151 178 186 186 188 189 186 178 176 180 183 180 174 170 166 157 150 141 148 150 153 155 162 166 164 166 171 163 147 131 137 142 122 132 136 138 139 144 146 142 139 132 132
70 187 195 198 202 199 195 192 186 184 186 184 180 177 179 174 165 158 155 156 159 162 168 171 175 179 179 167 150 143 158 141 141 141 144 149 148 147 149 145 141 144 138
76 117 196 213 214 216 209 200 198 193 189 188 187 184 185 185 177 172 169 169 169 171 175 179 183 184 177 166 156 161 157 150 145 143 143 154 149 146 156 156 151 153 143
96 121 147 202 223 229 225 216 209 203 195 192 193 192 191 194 191 184 182 181 182 182 179 179 183 182 179 171 163 172 164 156 149 150 156 167 161 163 163 159 156 158 152
78 126 148 176 226 240 238 231 219 213 205 200 198 199 200 201 199 194 190 190 189 190 185 182 182 180 175 171 169 178 166 163 160 159 163 163 173 178 171 167 164 162 159
61 103 189 239 255 250 230 226 225 220 216 211 206 206 206 206 205 201 199 197 195 194 193 188 185 181 173 176 179 185 174 176 167 168 159 155 174 179 182 175 169 165 165
24 17 352 296 295 264 228 227 223 222 221 219 215 212 213 211 211 209 205 205 202 199 198 192 186 185 181 184 187 190 187 190 173 182 177 177 174 177 183 178 174 175 171
21 1 12 1 335 307 245 235 235 228 224 221 220 216 216 219 218 214 212 212 211 207 203 198 193 192 189 189 192 197 197 195 200 206 198 192 185 180 186 185 180 181 181
343 332 322 346 339 323 288 260 249 243 236 227 223 219 217 223 225 222 217 217 218 215 211 206 201 198 195 193 195 201 203 196 190 182 200 207 198 190 194 192 189 184 185
307 309 319 318 338 322 315 301 267 249 240 235 228 222 221 223 228 225 223 221 222 222 219 215 209 204 201 200 198 202 205 199 192 201 203 207 198 198 202 200 197 193 191
346 216 278 311 309 312 302 303 301 257 246 238 233 231 230 228 230 233 230 225 226 227 225 222 218 213 209 207 204 204 209 205 199 198 198 193 194 198 204 207 206 199 199
330 303 200 240 263 274 277 274 297 287 258 250 242 238 239 239 236 236 237 230 227 226 227 224 221 219 217 212 212 208 211 214 209 202 199 197 200 206 201 210 213 211 209
326 339 194 248 270 282 275 276 282 281 259 257 256 253 249 248 246 242 240 239 234 231 230 228 227 225 224 221 218 216 213 214 217 212 209 204 207 215 216 213 219 219 217
64 93 181 226 259 272 280 277 276 270 266 259 257 257 256 257 254 250 247 243 241 238 236 233 231 230 228 226 220 219 219 215 215 214 214 214 210 212 221 224 225 222 221
99 131 197 228 244 252 261 268 273 280 272 276 267 250 260 263 260 259 258 252 246 243 241 239 236 235 233 231 228 222 221 221 217 216 220 219 215 214 218 225 227 224 225
32 344 256 246 253 256 254 260 270 279 282 280 276 278 256 266 260 253 254 258 255 251 246 245 243 240 237 233 232 226 223 222 222 218 221 222 219 215 221 225 226 223 224
339 324 304 295 285 267 264 261 265 268 274 282 289 291 291 282 284 279 250 245 249 255 256 251 246 244 239 236 232 228 222 219 221 221 220 222 227 223 218 223 225 226 226
338 325 321 317 310 298 287 278 277 273 272 273 278 281 283 284 285 277 268 241 235 261 259 251 249 244 242 240 236 232 227 222 224 225 224 224 226 229 226 227 224 224 228
334 329 324 318 317 313 306 299 297 295 288 286 285 286 284 282 276 276 278 261 236 237 260 252 249 247 245 243 243 237 232 231 229 226 228 229 228 231 234 233 228 226 230
332 326 323 321 319 316 312 308 298 296 296 294 292 293 292 287 280 274 264 268 260 237 241 237 253 249 248 245 239 239 235 231 230 230 233 235 236 235 238 238 238 235 235
335 328 325 323 321 320 317 312 307 301 293 290 289 286 286 283 280 274 265 262 248 275 237 237 243 244 249 248 237 232 230 232 231 231 234 238 239 239 240 238 239 242 241
339 335 330 326 323 319 314 309 303 296 293 288 283 285 283 281 275 273 269 254 257 248 246 219 232 234 243 242 241 231 219 223 232 236 233 237 239 239 240 240 240 241 243
345 340 336 331 327 321 315 309 306 303 298 297 294 286 288 285 280 271 269 262 249 247 252 236 223 236 245 251 255 244 236 235 237 247 242 239 240 239 238 239 241 242 242
343 342 340 338 336 333 329 324 318 312 307 301 298 294 288 289 285 279 270 266 254 242 248 256 229 230 238 251 240 243 238 235 233 242 255 253 238 239 238 237 239 242 243
350 348 346 341 339 337 332 326 320 316 313 308 304 300 294 292 290 285 274 265 258 247 236 235 229 225 230 239 232 242 241 237 232 232 238 251 256 248 238 239 239 241 242